Regional Weather Roundup
Issued by NWS

Home | Current Version | Previous Version | Text Only | Print | Product List | Glossary Off
Versions: 1 2 3 4 5 6 7 8 9 10 11 12 13 14 15 16 17 18 19 20 21 22 23 24 25 26 27 28 29 30 31 32 33 34 35 36 37 38 39 40 41 42 43 44 45 46 47 48 49 50

000
ASUS43 KDTX 182201
RWRMI
MICHIGAN HOURLY REGIONAL WEATHER ROUNDUP
NATIONAL WEATHER SERVICE DETROIT/PONTIAC MI
500 PM EST THU JAN 18 2018

NOTE: "FAIR" INDICATES FEW OR NO CLOUDS BELOW 12,000 FEET WITH NO
SIGNIFICANT WEATHER AND/OR OBSTRUCTION TO VISIBILITY.

MIZ047>049-052>055-059>063-066>070-074>076-081>083-182300-
SOUTHEAST LOWER MICHIGAN

CITY           SKY/WX    TMP DP  RH WIND       PRES   REMARKS
ADRIAN         FAIR      26  16  65 SW16      30.03F WCI  14
ALMA           FAIR      31  21  66 SW10      29.90F WCI  23
ANN ARBOR      FAIR      27  17  66 S13       29.99S WCI  16
BAD AXE        CLOUDY    27  20  75 SW13      29.89F WCI  16
CARO           FAIR      27  18  70 S12       29.90F WCI  16
DETROIT CITY   FAIR      26  16  65 SW15      29.99F WCI  14
DETROIT        MOCLDY    27  17  66 SW17      30.02F WCI  14
FLINT          FAIR      29  16  58 SW12      29.94S WCI  19
GROSSE ILE     FAIR      28  18  66 SW7       30.02S WCI  20
HILLSDALE      FAIR      30  14  51 SW10G22   29.98F WCI  21
HOWELL         FAIR      30  18  59 SW14      29.94F WCI  20

CITY           SKY/WX    TMP DP  RH WIND       PRES   REMARKS
JACKSON        FAIR      28  15  58 SW15      29.98S WCI  16
LAMBERTVILLE   FAIR      27  15  61 SW12G17   30.04F WCI  16
LANSING        FAIR      31  17  56 SW17      29.94F WCI  19
LAPEER         FAIR      30  17  58 W8        29.93S WCI  23
MASON          FAIR      31  14  49 SW10G17   29.95F WCI  22
MONROE         FAIR      27  14  57 SW12      30.03S WCI  17
MT. CLEMENS    CLOUDY    29  13  52 SW17G23   29.95F WCI  16
PONTIAC        MOCLDY    29  17  61 SW9       29.93F WCI  20
PORT HOPE        N/A     28  20  71 VRB7      29.85F WCI  21
PORT HURON     FAIR      27  16  63 S9        29.97R WCI  17
TRI CITIES     FAIR      29  22  75 SW12      29.90F WCI  19
MIDLAND        FAIR      31  23  73 S13G20    29.87F WCI  21
TROY           FAIR      28  17  63 SW14G20   29.99S WCI  17
SAGINAW HB     FAIR      28  21  74 SW15      29.91F WCI  17
$$
MIZ043>046-050>051-056>058-064>065-071>073-077>080-182300-
SOUTHWEST LOWER MICHIGAN

CITY           SKY/WX    TMP DP  RH WIND       PRES   REMARKS
BATTLE CREEK   FAIR      28  16  60 SW13      29.97S WCI  17
BENTON HARBOR  FAIR      31  15  52 SW10      29.99F WCI  22
BIG RAPIDS     FAIR      30  21  70 SW9G20    29.85F WCI  21
COLDWATER      FAIR      27  15  61 SW15G21   30.00S WCI  15
FREMONT        FAIR      30  20  65 SW13G23   29.89F WCI  20
HOLLAND        FAIR      30  21  69 SW15      29.94F WCI  19
GRAND RAPIDS   FAIR      30  18  60 SW9       29.94S WCI  22
IONIA          FAIR      30  18  59 SW13G18   29.92S WCI  20
KALAMAZOO      FAIR      30  15  53 SW18G24   29.98F WCI  18
LUDINGTON      FAIR      31  26  81 SW17G25   29.84F WCI  19
MARSHALL       FAIR      28  15  57 SW12G18   29.97S WCI  18
MOUNT PLEASANT FAIR      32  23  68 SW13      29.87F WCI  22
MUSKEGON       FAIR      32  23  69 SW18G26   29.92F WCI  20
SOUTH HAVEN    FAIR      33  15  47 SW15G28   29.97S WCI  23
$$
MIZ016>042-182300-
NORTHERN LOWER MICHIGAN

CITY           SKY/WX    TMP DP  RH WIND       PRES   REMARKS
ALPENA         FAIR      30  24  78 S7        29.77F WCI  23
BEAVER ISLAND  CLOUDY    33  29  86 SW16G23   29.73S WCI  22
BELLAIRE       FAIR      34  27  75 S14G20    29.74F WCI  25
CADILLAC       FAIR      30  24  78 SW16      29.77F WCI  19
CHARLEVOIX     MOCLDY    33  26  75 SW12G20   29.77R WCI  25
FRANKFORT      MOCLDY    32  27  81 S16G26    29.80R WCI  21
GAYLORD        FAIR      32  25  75 SW13      29.70F WCI  22
GRAYLING       FAIR      31  23  71 S9G16     29.76F WCI  23
HARBOR SPRINGS FAIR      32  26  76 W8        29.74R WCI  25
HOUGHTON LAKE  FAIR      30  23  75 SW9       29.80S WCI  22
MANISTEE       FAIR      31  24  75 S13G22    29.81F WCI  21
OSCODA         FAIR      30  22  72 SW15      29.82F WCI  19
PELLSTON       MOCLDY    32  25  75 CALM      29.75R
ROGERS CITY    FAIR      31  24  75 CALM      29.77F
TRAVERSE CITY  MOCLDY    34  24  67 SW10G24   29.74F WCI  26
$$
MIZ007>008-015-182300-
EASTERN UPPER MICHIGAN

CITY           SKY/WX    TMP DP  RH WIND       PRES   REMARKS
KINROSS        CLOUDY    31  27  85 S9        29.72F WCI  23
MACKINAC ISLAN CLOUDY    31  26  79 S6        29.73F WCI  26
NEWBERRY       CLOUDY    28  25  91 SW10G17   29.70R WCI  18
S. S. MARIE    CLOUDY    34  28  79 SW7       29.73R WCI  28
MUNISING         N/A     27  21  78 SW10      29.71R WCI  17
$$
MIZ004>006-011>014-085-182300-
CENTRAL UPPER MICHIGAN

CITY           SKY/WX    TMP DP  RH WIND       PRES   REMARKS
MANISTIQUE     CLOUDY    26  21  81 CALM      29.73R
ESCANABA       CLOUDY    29  23  78 S7        29.75R WCI  22
MENOMINEE      FAIR      35  20  54 SW5       29.76R WCI  31
SAWYER-GWINN   CLOUDY    32  23  69 W10       29.69R WCI  24
$$
MIZ001>003-009>011-084-182300-
WESTERN UPPER MICHIGAN

CITY           SKY/WX    TMP DP  RH WIND       PRES   REMARKS
IRON MOUNTAIN  CLOUDY    34  24  67 W7        29.70R WCI  28
HOUGHTON       CLOUDY    33  27  78 W14       29.67R WCI  23
COPPER HARBOR    N/A     33  29  85 N10       29.67R WCI  25
IRONWOOD       CLOUDY    32  24  72 W13       29.72R WCI  22
$$

ABBREVIATIONS USED IN REMARKS
   TC - TEMPERATURE IN CELSIUS
  WCI - WIND CHILL INDEX
   HX - HEAT INDEX
  VSB - VISIBILITY




USA.gov is the U.S. government's official web portal to all federal, state and local government web resources and services.